26-08-2023, 00:00:09,    255,    0.0,   10.7,   0.00,   0.00, 1006.3,    0.1, -999.0
26-08-2023, 00:00:19,    254,    0.0,   10.6,   0.00,   0.00, 1006.3,    0.1, -999.0
26-08-2023, 00:00:28,    255,    0.0,   10.6,   0.00,   0.00, 1006.3,    0.1, -999.0
26-08-2023, 00:00:39,    255,    0.0,   10.8,   0.00,   0.00, 1006.3,    0.2, -999.0
26-08-2023, 00:00:49,    255,    0.0,   10.7,   0.00,   0.00, 1006.3,    0.2, -999.0
26-08-2023, 00:00:59,    255,    0.0,   10.7,   0.00,   0.00, 1006.3,    0.1, -999.0
26-08-2023, 00:01:08,    255,    0.0,   10.7,   0.00,   0.00, 1006.3,    0.1, -999.0
26-08-2023, 00:01:19,    255,    0.0,   10.7,   0.00,   0.00, 1006.3,    0.2, -999.0
26-08-2023, 00:01:29,    255,    0.0,   10.7,   0.00,   0.00, 1006.3,    0.2, -999.0
26-08-2023, 00:01:38,    255,    0.0,   10.8,   0.00,   0.00, 1006.3,    0.1, -999.0
26-08-2023, 00:01:48,    255,    0.0,   10.8,   0.00,   0.00, 1006.3,    0.1, -999.0
26-08-2023, 00:01:59,    255,    0.0,   10.7,   0.00,   0.00, 1006.3,    0.1, -999.0
26-08-2023, 00:02:09,    255,    0.0,   10.6,   0.00,   0.00, 1006.3,    0.2, -999.0
26-08-2023, 00:02:18,    255,    0.0,   10.7,   0.00,   0.00, 1006.3,    0.2, -999.0
26-08-2023, 00:02:28,    255,    0.0,   10.7,   0.00,   0.00, 1006.3,    0.1, -999.0
26-08-2023, 00:02:39,    255,    0.0,   10.7,   0.00,   0.00, 1006.3,    0.1, -999.0
26-08-2023, 00:02:48,    255,    0.0,   10.7,   0.00,   0.00, 1006.3,    0.2, -999.0
26-08-2023, 00:02:58,    255,    0.0,   10.7,   0.00,   0.00, 1006.3,    0.1, -999.0
26-08-2023, 00:03:08,    255,    0.0,   10.7,   0.00,   0.00, 1006.3,    0.1, -999.0
26-08-2023, 00:03:18,    255,    0.0,   10.7,   0.00,   0.00, 1006.3,    0.0, -999.0
26-08-2023, 00:03:28,    254,    0.0,   10.7,   0.00,   0.00, 1006.3,    0.2, -999.0
26-08-2023, 00:03:38,    255,    0.0,   10.7,   0.00,   0.00, 1006.3,    0.3, -999.0
26-08-2023, 00:03:48,    255,    0.0,   10.8,   0.00,   0.00, 1006.3,    0.2, -999.0
26-08-2023, 00:03:58,    255,    0.0,   10.8,   0.00,   0.00, 1006.3,    0.2, -999.0
26-08-2023, 00:04:08,    255,    0.0,   10.8,   0.00,   0.00, 1006.3,    0.2, -999.0
26-08-2023, 00:04:18,    255,    0.0,   10.8,   0.00,   0.00, 1006.3,    0.1, -999.0
26-08-2023, 00:04:28,    255,    0.0,   10.8,   0.00,   0.00, 1006.3,    0.1, -999.0
26-08-2023, 00:04:38,    254,    0.0,   10.8,   0.00,   0.00, 1006.3,    0.1, -999.0
26-08-2023, 00:04:48,    252,    0.0,   10.8,   0.00,   0.00, 1006.3,    0.1, -999.0
26-08-2023, 00:04:58,    255,    0.0,   10.8,   0.00,   0.00, 1006.3,    0.2, -999.0
26-08-2023, 00:05:08,    255,    0.0,   10.8,   0.00,   0.00, 1006.3,    0.2, -999.0
26-08-2023, 00:05:18,    255,    0.0,   10.7,   0.00,   0.00, 1006.3,    0.2, -999.0
26-08-2023, 00:05:28,    255,    0.0,   10.7,   0.00,   0.00, 1006.3,    0.1, -999.0
26-08-2023, 00:05:38,    255,    0.0,   10.7,   0.00,   0.00, 1006.3,    0.3, -999.0
26-08-2023, 00:05:48,    255,    0.0,   10.8,   0.00,   0.00, 1006.3,    0.2, -999.0
26-08-2023, 00:05:58,    255,    0.0,   10.7,   0.00,   0.00, 1006.3,    0.3, -999.0
26-08-2023, 00:06:08,    255,    0.0,   10.7,   0.00,   0.00, 1006.3,    0.1, -999.0
26-08-2023, 00:06:18,    255,    0.0,   10.8,   0.00,   0.00, 1006.3,    0.3, -999.0
26-08-2023, 00:06:28,    256,    0.0,   10.7,   0.00,   0.00, 1006.3,    0.3, -999.0
26-08-2023, 00:06:38,    255,    0.0,   10.7,   0.00,   0.00, 1006.3,    0.1, -999.0
26-08-2023, 00:06:48,    255,    0.0,   10.7,   0.00,   0.00, 1006.3,    0.1, -999.0
26-08-2023, 00:06:58,    255,    0.0,   10.7,   0.00,   0.00, 1006.3,    0.1, -999.0
26-08-2023, 00:07:08,    255,    0.0,   10.7,   0.00,   0.00, 1006.3,    0.2, -999.0
26-08-2023, 00:07:18,    255,    0.0,   10.8,   0.00,   0.00, 1006.3,    0.2, -999.0
26-08-2023, 00:07:28,    255,    0.0,   10.8,   0.00,   0.00, 1006.3,    0.1, -999.0
26-08-2023, 00:07:38,    255,    0.0,   10.8,   0.00,   0.00, 1006.3,    0.1, -999.0
26-08-2023, 00:07:48,    253,    0.0,   10.8,   0.00,   0.00, 1006.3,    0.2, -999.0
26-08-2023, 00:07:57,    253,    0.0,   10.8,   0.00,   0.00, 1006.3,    0.1, -999.0
26-08-2023, 00:08:08,    253,    0.0,   10.8,   0.00,   0.00, 1006.3,    0.2, -999.0
26-08-2023, 00:08:18,    253,    0.0,   10.8,   0.00,   0.00, 1006.3,    0.1, -999.0
26-08-2023, 00:08:28,    253,    0.0,   10.8,   0.00,   0.00, 1006.3,    0.3, -999.0
26-08-2023, 00:08:38,    253,    0.0,   10.7,   0.00,   0.00, 1006.3,    0.2, -999.0
26-08-2023, 00:08:48,    253,    0.0,   10.7,   0.00,   0.00, 1006.3,    0.2, -999.0
26-08-2023, 00:08:58,    253,    0.0,   10.8,   0.00,   0.00, 1006.3,    0.4, -999.0
26-08-2023, 00:09:07,    253,    0.0,   10.8,   0.00,   0.00, 1006.3,    0.2, -999.0
26-08-2023, 00:09:18,    253,    0.0,   10.7,   0.00,   0.00, 1006.3,    0.2, -999.0
26-08-2023, 00:09:28,    253,    0.0,   10.7,   0.00,   0.00, 1006.3,    0.2, -999.0
26-08-2023, 00:09:37,    253,    0.0,   10.7,   0.00,   0.00, 1006.3,    0.1, -999.0
26-08-2023, 00:09:47,    253,    0.0,   10.7,   0.00,   0.00, 1006.3,    0.3, -999.0
26-08-2023, 00:09:58,    253,    0.0,   10.7,   0.00,   0.00, 1006.3,    0.1, -999.0
26-08-2023, 00:10:07,    253,    0.0,   10.6,   0.00,   0.00, 1006.3,    0.1, -999.0
26-08-2023, 00:10:17,    251,    0.0,   10.7,   0.00,   0.00, 1006.3,    0.2, -999.0
26-08-2023, 00:10:27,    251,    0.0,   10.7,   0.00,   0.00, 1006.3,    0.1, -999.0
26-08-2023, 00:10:38,    252,    0.0,   10.7,   0.00,   0.00, 1006.3,    0.2, -999.0
26-08-2023, 00:10:47,    251,    0.0,   10.8,   0.00,   0.00, 1006.3,    0.0, -999.0
26-08-2023, 00:10:57,    251,    0.0,   10.7,   0.00,   0.00, 1006.3,    0.1, -999.0
26-08-2023, 00:11:07,    251,    0.0,   10.8,   0.00,   0.00, 1006.3,    0.1, -999.0
26-08-2023, 00:11:17,    251,    0.0,   10.7,   0.00,   0.00, 1006.3,    0.1, -999.0
26-08-2023, 00:11:27,    252,    0.0,   10.8,   0.00,   0.00, 1006.3,    0.3, -999.0
26-08-2023, 00:11:37,    249,    0.0,   10.8,   0.00,   0.00, 1006.3,    0.1, -999.0
26-08-2023, 00:11:47,    228,    0.1,   10.8,   0.00,   0.00, 1006.3,    0.1, -999.0
26-08-2023, 00:11:57,    228,    0.4,   10.9,   0.00,   0.00, 1006.4,    0.2, -999.0
26-08-2023, 00:12:07,    228,    0.0,   10.8,   0.00,   0.00, 1006.3,    0.2, -999.0
26-08-2023, 00:12:17,    228,    0.0,   10.7,   0.00,   0.00, 1006.3,    0.3, -999.0
26-08-2023, 00:12:27,    229,    0.0,   10.8,   0.00,   0.00, 1006.3,    0.1, -999.0
26-08-2023, 00:12:37,    229,    0.0,   10.8,   0.00,   0.00, 1006.3,    0.1, -999.0
26-08-2023, 00:12:47,    228,    0.0,   10.8,   0.00,   0.00, 1006.3,    0.2, -999.0
26-08-2023, 00:12:57,    228,    0.0,   10.8,   0.00,   0.00, 1006.3,    0.1, -999.0
26-08-2023, 00:13:07,    229,    0.0,   10.8,   0.00,   0.00, 1006.3,    0.2, -999.0
26-08-2023, 00:13:17,    229,    0.0,   10.8,   0.00,   0.00, 1006.3,    0.1, -999.0
26-08-2023, 00:13:27,    229,    0.0,   10.7,   0.00,   0.00, 1006.3,    0.1, -999.0
26-08-2023, 00:13:37,    229,    0.0,   10.7,   0.00,   0.00, 1006.3,    0.2, -999.0
26-08-2023, 00:13:47,    229,    0.0,   10.7,   0.00,   0.00, 1006.3,    0.2, -999.0
26-08-2023, 00:13:57,    228,    0.0,   10.8,   0.00,   0.00, 1006.3,    0.2, -999.0
26-08-2023, 00:14:07,    229,    0.0,   10.8,   0.00,   0.00, 1006.3,    0.3, -999.0
26-08-2023, 00:14:17,    229,    0.0,   10.8,   0.00,   0.00, 1006.3,    0.1, -999.0
26-08-2023, 00:14:27,    229,    0.0,   10.8,   0.00,   0.00, 1006.3,    0.2, -999.0
26-08-2023, 00:14:37,    229,    0.0,   10.7,   0.00,   0.00, 1006.3,    0.2, -999.0
26-08-2023, 00:14:47,    229,    0.0,   10.7,   0.00,   0.00, 1006.3,    0.1, -999.0
26-08-2023, 00:14:57,    229,    0.0,   10.7,   0.00,   0.00, 1006.3,    0.1, -999.0
26-08-2023, 00:15:07,    229,    0.0,   10.8,   0.00,   0.00, 1006.3,    0.2, -999.0
26-08-2023, 00:15:17,    229,    0.0,   10.8,   0.00,   0.00, 1006.3,    0.2, -999.0
26-08-2023, 00:15:27,    229,    0.0,   10.8,   0.00,   0.00, 1006.3,    0.2, -999.0
26-08-2023, 00:15:36,    229,    0.0,   10.8,   0.00,   0.00, 1006.3,    0.2, -999.0
26-08-2023, 00:15:47,    229,    0.0,   10.8,   0.00,   0.00, 1006.3,    0.2, -999.0
26-08-2023, 00:15:57,    229,    0.0,   10.8,   0.00,   0.00, 1006.3,    0.1, -999.0
26-08-2023, 00:16:07,    229,    0.0,   10.7,   0.00,   0.00, 1006.3,    0.1, -999.0
26-08-2023, 00:16:16,    229,    0.0,   10.7,   0.00,   0.00, 1006.3,    0.1, -999.0
26-08-2023, 00:16:27,    229,    0.0,   10.7,   0.00,   0.00, 1006.3,    0.2, -999.0
26-08-2023, 00:16:37,    228,    0.0,   10.7,   0.00,   0.00, 1006.3,    0.1, -999.0
26-08-2023, 00:16:46,    229,    0.0,   10.8,   0.00,   0.00, 1006.3,    0.3, -999.0
26-08-2023, 00:16:56,    228,    0.0,   10.7,   0.00,   0.00, 1006.3,    0.1, -999.0
26-08-2023, 00:17:07,    229,    0.0,   10.7,   0.00,   0.00, 1006.3,    0.0, -999.0
26-08-2023, 00:17:17,    229,    0.0,   10.7,   0.00,   0.00, 1006.3,    0.1, -999.0
26-08-2023, 00:17:26,    229,    0.0,   10.7,   0.00,   0.00, 1006.2,    0.1, -999.0
26-08-2023, 00:17:36,    229,    0.0,   10.6,   0.00,   0.00, 1006.2,    0.1, -999.0
26-08-2023, 00:17:47,    229,    0.0,   10.7,   0.00,   0.00, 1006.2,    0.3, -999.0
26-08-2023, 00:17:56,    229,    0.0,   10.7,   0.00,   0.00, 1006.3,    0.1, -999.0
26-08-2023, 00:18:06,    229,    0.0,   10.8,   0.00,   0.00, 1006.2,    0.2, -999.0
26-08-2023, 00:18:16,    229,    0.0,   10.7,   0.00,   0.00, 1006.3,    0.1, -999.0
26-08-2023, 00:18:26,    229,    0.0,   10.7,   0.00,   0.00, 1006.3,    0.2, -999.0
26-08-2023, 00:18:36,    228,    0.0,   10.7,   0.00,   0.00, 1006.3,    0.1, -999.0
26-08-2023, 00:18:46,    228,    0.0,   10.7,   0.00,   0.00, 1006.2,    0.2, -999.0
26-08-2023, 00:18:56,    225,    0.0,   10.7,   0.00,   0.00, 1006.3,    0.3, -999.0
26-08-2023, 00:19:06,    221,    0.0,   10.7,   0.00,   0.00, 1006.3,    0.1, -999.0
26-08-2023, 00:19:16,    221,    0.0,   10.7,   0.00,   0.00, 1006.3,    0.1, -999.0
26-08-2023, 00:19:26,    221,    0.0,   10.7,   0.00,   0.00, 1006.3,    0.2, -999.0
26-08-2023, 00:19:36,    221,    0.0,   10.7,   0.00,   0.00, 1006.3,    0.2, -999.0
26-08-2023, 00:19:46,    221,    0.0,   10.7,   0.00,   0.00, 1006.3,    0.2, -999.0
26-08-2023, 00:19:56,    221,    0.0,   10.7,   0.00,   0.00, 1006.2,    0.0, -999.0
26-08-2023, 00:20:06,    221,    0.0,   10.7,   0.00,   0.00, 1006.2,    0.2, -999.0
26-08-2023, 00:20:16,    221,    0.0,   10.8,   0.00,   0.00, 1006.2,    0.1, -999.0
26-08-2023, 00:20:26,    222,    0.0,   10.7,   0.00,   0.00, 1006.3,    0.0, -999.0
26-08-2023, 00:20:36,    222,    0.0,   10.7,   0.00,   0.00, 1006.2,    0.0, -999.0
26-08-2023, 00:20:46,    221,    0.0,   10.6,   0.00,   0.00, 1006.2,    0.0, -999.0
26-08-2023, 00:20:56,    221,    0.0,   10.7,   0.00,   0.00, 1006.2,    0.0, -999.0
26-08-2023, 00:21:06,    220,    0.0,   10.6,   0.00,   0.00, 1006.2,    0.2, -999.0
26-08-2023, 00:21:16,    221,    0.0,   10.6,   0.00,   0.00, 1006.3,    0.5, -999.0
26-08-2023, 00:21:26,    221,    0.0,   10.8,   0.00,   0.00, 1006.3,    0.1, -999.0
26-08-2023, 00:21:36,    220,    0.0,   10.8,   0.00,   0.00, 1006.2,    0.0, -999.0
26-08-2023, 00:21:46,    221,    0.0,   10.8,   0.00,   0.00, 1006.2,    0.2, -999.0
26-08-2023, 00:21:56,    223,    0.0,   10.7,   0.00,   0.00, 1006.2,    0.0, -999.0
26-08-2023, 00:22:06,    223,    0.0,   10.7,   0.00,   0.00, 1006.2,    0.3, -999.0
26-08-2023, 00:22:16,    223,    0.0,   10.7,   0.00,   0.00, 1006.2,    0.0, -999.0
26-08-2023, 00:22:26,    221,    0.0,   10.7,   0.00,   0.00, 1006.3,    0.2, -999.0
26-08-2023, 00:22:36,    221,    0.0,   10.7,   0.00,   0.00, 1006.2,    0.0, -999.0
26-08-2023, 00:22:46,    221,    0.0,   10.7,   0.00,   0.00, 1006.2,    0.0, -999.0
26-08-2023, 00:22:55,    220,    0.0,   10.7,   0.00,   0.00, 1006.2,    0.2, -999.0
26-08-2023, 00:23:06,    220,    0.0,   10.7,   0.00,   0.00, 1006.2,    0.2, -999.0
26-08-2023, 00:23:16,    220,    0.0,   10.7,   0.00,   0.00, 1006.2,    0.2, -999.0
26-08-2023, 00:23:26,    221,    0.0,   10.7,   0.00,   0.00, 1006.2,    0.1, -999.0
26-08-2023, 00:23:35,    221,    0.0,   10.7,   0.00,   0.00, 1006.2,    0.3, -999.0
26-08-2023, 00:23:46,    220,    0.0,   10.6,   0.00,   0.00, 1006.2,    0.2, -999.0
26-08-2023, 00:23:56,    221,    0.0,   10.7,   0.00,   0.00, 1006.2,    0.2, -999.0
26-08-2023, 00:24:05,    221,    0.0,   10.7,   0.00,   0.00, 1006.2,    0.1, -999.0
26-08-2023, 00:24:16,    221,    0.0,   10.6,   0.00,   0.00, 1006.2,    0.2, -999.0
26-08-2023, 00:24:26,    221,    0.0,   10.7,   0.00,   0.00, 1006.2,    0.1, -999.0
26-08-2023, 00:24:35,    220,    0.0,   10.7,   0.00,   0.00, 1006.2,    0.1, -999.0
26-08-2023, 00:24:45,    221,    0.0,   10.7,   0.00,   0.00, 1006.3,    0.1, -999.0
26-08-2023, 00:24:56,    221,    0.0,   10.7,   0.00,   0.00, 1006.2,    0.2, -999.0
26-08-2023, 00:25:06,    220,    0.0,   10.5,   0.00,   0.00, 1006.2,    0.1, -999.0
26-08-2023, 00:25:15,    221,    0.0,   10.6,   0.00,   0.00, 1006.2,    0.1, -999.0
26-08-2023, 00:25:25,    220,    0.0,   10.6,   0.00,   0.00, 1006.2,    0.1, -999.0
26-08-2023, 00:25:36,    220,    0.0,   10.7,   0.00,   0.00, 1006.2,    0.1, -999.0
26-08-2023, 00:25:45,    220,    0.0,   10.7,   0.00,   0.00, 1006.3,    0.2, -999.0
26-08-2023, 00:25:55,    221,    0.0,   10.6,   0.00,   0.00, 1006.2,    0.2, -999.0
26-08-2023, 00:26:05,    220,    0.0,   10.6,   0.00,   0.00, 1006.2,    0.1, -999.0
26-08-2023, 00:26:16,    220,    0.0,   10.6,   0.00,   0.00, 1006.2,    0.1, -999.0
26-08-2023, 00:26:25,    225,    0.0,   10.7,   0.00,   0.00, 1006.2,    0.1, -999.0
26-08-2023, 00:26:35,    221,    0.0,   10.7,   0.00,   0.00, 1006.2,    0.1, -999.0
26-08-2023, 00:26:45,    220,    0.0,   10.6,   0.00,   0.00, 1006.2,    0.2, -999.0
26-08-2023, 00:26:55,    220,    0.0,   10.6,   0.00,   0.00, 1006.3,    0.2, -999.0
26-08-2023, 00:27:05,    221,    0.0,   10.6,   0.00,   0.00, 1006.2,    0.2, -999.0
26-08-2023, 00:27:15,    220,    0.0,   10.6,   0.00,   0.00, 1006.2,    0.1, -999.0
26-08-2023, 00:27:25,    221,    0.0,   10.7,   0.00,   0.00, 1006.2,    0.2, -999.0
26-08-2023, 00:27:35,    222,    0.0,   10.6,   0.00,   0.00, 1006.3,    0.1, -999.0
26-08-2023, 00:27:45,    220,    0.0,   10.6,   0.00,   0.00, 1006.3,    0.2, -999.0
26-08-2023, 00:27:55,    220,    0.0,   10.6,   0.00,   0.00, 1006.2,    0.0, -999.0
26-08-2023, 00:28:05,    219,    0.0,   10.6,   0.00,   0.00, 1006.3,    0.1, -999.0
26-08-2023, 00:28:15,    221,    0.0,   10.6,   0.00,   0.00, 1006.2,    0.2, -999.0
26-08-2023, 00:28:25,    220,    0.0,   10.6,   0.00,   0.00, 1006.2,    0.1, -999.0
26-08-2023, 00:28:35,    221,    0.0,   10.6,   0.00,   0.00, 1006.2,    0.3, -999.0
26-08-2023, 00:28:45,    220,    0.0,   10.6,   0.00,   0.00, 1006.2,    0.1, -999.0
26-08-2023, 00:28:55,    221,    0.0,   10.6,   0.00,   0.00, 1006.2,    0.1, -999.0
26-08-2023, 00:29:05,    221,    0.0,   10.6,   0.00,   0.00, 1006.3,    0.3, -999.0
26-08-2023, 00:29:15,    221,    0.0,   10.6,   0.00,   0.00, 1006.2,    0.2, -999.0
26-08-2023, 00:29:25,    221,    0.0,   10.6,   0.00,   0.00, 1006.3,    0.1, -999.0
26-08-2023, 00:29:35,    219,    0.1,   10.5,   0.00,   0.00, 1006.3,    0.1, -999.0
26-08-2023, 00:29:45,    218,    0.9,   10.7,   0.00,   0.00, 1006.3,    0.3, -999.0
26-08-2023, 00:29:55,    219,    0.1,   10.7,   0.00,   0.00, 1006.2,    0.3, -999.0
26-08-2023, 00:30:05,    219,    0.0,   10.4,   0.00,   0.00, 1006.2,    0.2, -999.0
26-08-2023, 00:30:15,    219,    0.0,   10.4,   0.00,   0.00, 1006.2,    0.2, -999.0
26-08-2023, 00:30:25,    219,    0.0,   10.5,   0.00,   0.00, 1006.2,    0.1, -999.0
26-08-2023, 00:30:35,    218,    0.0,   10.6,   0.00,   0.00, 1006.2,    0.1, -999.0
26-08-2023, 00:30:44,    219,    0.0,   10.6,   0.00,   0.00, 1006.2,    0.2, -999.0
26-08-2023, 00:30:55,    219,    0.0,   10.6,   0.00,   0.00, 1006.3,    0.1, -999.0
26-08-2023, 00:31:05,    219,    0.0,   10.6,   0.00,   0.00, 1006.2,    0.1, -999.0
26-08-2023, 00:31:15,    220,    0.0,   10.5,   0.00,   0.00, 1006.2,    0.3, -999.0
26-08-2023, 00:31:24,    219,    0.0,   10.5,   0.00,   0.00, 1006.2,    0.2, -999.0
26-08-2023, 00:31:35,    202,    0.0,   10.6,   0.00,   0.00, 1006.3,    0.1, -999.0
26-08-2023, 00:31:45,    203,    0.0,   10.5,   0.00,   0.00, 1006.3,    0.1, -999.0
26-08-2023, 00:31:54,    203,    0.0,   10.5,   0.00,   0.00, 1006.2,    0.2, -999.0
26-08-2023, 00:32:04,    203,    0.0,   10.6,   0.00,   0.00, 1006.3,    0.1, -999.0
26-08-2023, 00:32:15,    203,    0.0,   10.6,   0.00,   0.00, 1006.3,    0.1, -999.0
26-08-2023, 00:32:25,    204,    0.0,   10.5,   0.00,   0.00, 1006.3,    0.2, -999.0
26-08-2023, 00:32:34,    203,    0.0,   10.5,   0.00,   0.00, 1006.2,    0.1, -999.0
26-08-2023, 00:32:44,    203,    0.0,   10.6,   0.00,   0.00, 1006.2,    0.2, -999.0
26-08-2023, 00:32:55,    203,    0.0,   10.5,   0.00,   0.00, 1006.2,    0.2, -999.0
26-08-2023, 00:33:04,    203,    0.0,   10.5,   0.00,   0.00, 1006.2,    0.0, -999.0
26-08-2023, 00:33:14,    203,    0.0,   10.5,   0.00,   0.00, 1006.2,    0.1, -999.0
26-08-2023, 00:33:24,    203,    0.0,   10.6,   0.00,   0.00, 1006.2,    0.2, -999.0
26-08-2023, 00:33:34,    203,    0.0,   10.4,   0.00,   0.00, 1006.2,    0.2, -999.0
26-08-2023, 00:33:44,    203,    0.0,   10.5,   0.00,   0.00, 1006.2,    0.1, -999.0
26-08-2023, 00:33:54,    203,    0.0,   10.6,   0.00,   0.00, 1006.3,    0.2, -999.0
26-08-2023, 00:34:04,    203,    0.0,   10.6,   0.00,   0.00, 1006.2,    0.2, -999.0
26-08-2023, 00:34:14,    203,    0.0,   10.5,   0.00,   0.00, 1006.3,    0.1, -999.0
26-08-2023, 00:34:24,    203,    0.0,   10.6,   0.00,   0.00, 1006.2,    0.1, -999.0
26-08-2023, 00:34:34,    203,    0.0,   10.5,   0.00,   0.00, 1006.2,    0.1, -999.0
26-08-2023, 00:34:44,    204,    0.0,   10.5,   0.00,   0.00, 1006.3,    0.1, -999.0
26-08-2023, 00:34:54,    203,    0.0,   10.6,   0.00,   0.00, 1006.3,    0.2, -999.0
26-08-2023, 00:35:04,    203,    0.0,   10.6,   0.00,   0.00, 1006.2,    0.2, -999.0
26-08-2023, 00:35:14,    203,    0.0,   10.5,   0.00,   0.00, 1006.2,    0.1, -999.0
26-08-2023, 00:35:24,    203,    0.0,   10.5,   0.00,   0.00, 1006.2,    0.2, -999.0
26-08-2023, 00:35:34,    210,    0.0,   10.6,   0.00,   0.00, 1006.2,    0.1, -999.0
26-08-2023, 00:35:44,    274,    0.3,   10.6,   0.00,   0.00, 1006.3,    0.1, -999.0
26-08-2023, 00:35:54,    229,    0.0,   10.5,   0.00,   0.00, 1006.3,    0.1, -999.0
26-08-2023, 00:36:04,    228,    0.0,   10.5,   0.00,   0.00, 1006.3,    0.1, -999.0
26-08-2023, 00:36:14,    236,    0.0,   10.5,   0.00,   0.00, 1006.2,    0.1, -999.0
26-08-2023, 00:36:24,    236,    0.0,   10.5,   0.00,   0.00, 1006.2,    0.3, -999.0
26-08-2023, 00:36:34,    236,    0.0,   10.5,   0.00,   0.00, 1006.2,    0.1, -999.0
26-08-2023, 00:36:44,    237,    0.0,   10.5,   0.00,   0.00, 1006.2,    0.2, -999.0
26-08-2023, 00:36:54,    237,    0.0,   10.5,   0.00,   0.00, 1006.2,    0.1, -999.0
26-08-2023, 00:37:04,    237,    0.0,   10.5,   0.00,   0.00, 1006.2,    0.1, -999.0
26-08-2023, 00:37:14,    237,    0.0,   10.5,   0.00,   0.00, 1006.2,    0.1, -999.0
26-08-2023, 00:37:24,    235,    0.0,   10.5,   0.00,   0.00, 1006.2,    0.2, -999.0
26-08-2023, 00:37:34,    236,    0.0,   10.5,   0.00,   0.00, 1006.2,    0.1, -999.0
26-08-2023, 00:37:44,    228,    0.0,   10.4,   0.00,   0.00, 1006.2,    0.2, -999.0
26-08-2023, 00:37:54,    227,    0.1,   10.6,   0.00,   0.00, 1006.3,    0.1, -999.0
26-08-2023, 00:38:04,    246,    0.0,   10.5,   0.00,   0.01, 1006.2,    0.2, -999.0
26-08-2023, 00:38:14,    246,    0.2,   10.7,   0.00,   0.00, 1006.3,    0.3, -999.0
26-08-2023, 00:38:24,    246,    0.0,   10.5,   0.00,   0.00, 1006.2,    0.3, -999.0
26-08-2023, 00:38:33,    246,    0.0,   10.5,   0.00,   0.00, 1006.2,    0.2, -999.0
26-08-2023, 00:38:44,    246,    0.0,   10.5,   0.00,   0.00, 1006.2,    0.1, -999.0
26-08-2023, 00:38:54,    246,    0.0,   10.5,   0.00,   0.00, 1006.1,    0.2, -999.0
26-08-2023, 00:39:03,    245,    0.0,   10.5,   0.00,   0.00, 1006.2,    0.1, -999.0
26-08-2023, 00:39:13,    245,    0.0,   10.6,   0.00,   0.00, 1006.2,    0.2, -999.0
26-08-2023, 00:39:24,    245,    0.0,   10.6,   0.00,   0.00, 1006.2,    0.2, -999.0
26-08-2023, 00:39:34,    244,    0.0,   10.5,   0.00,   0.00, 1006.2,    0.2, -999.0
26-08-2023, 00:39:43,    230,    0.0,   10.6,   0.00,   0.00, 1006.2,    0.1, -999.0
26-08-2023, 00:39:53,    231,    0.4,   10.6,   0.00,   0.00, 1006.3,    0.2, -999.0
26-08-2023, 00:40:04,    231,    0.0,   10.5,   0.00,   0.00, 1006.2,    0.1, -999.0
26-08-2023, 00:40:13,    231,    0.0,   10.5,   0.00,   0.00, 1006.2,    0.1, -999.0
26-08-2023, 00:40:23,    223,    0.1,   10.5,   0.00,   0.00, 1006.2,    0.2, -999.0
26-08-2023, 00:40:33,    224,    0.3,   10.6,   0.00,   0.00, 1006.3,    0.2, -999.0
26-08-2023, 00:40:43,    223,    0.0,   10.5,   0.00,   0.00, 1006.2,    0.2, -999.0
26-08-2023, 00:40:53,    223,    0.0,   10.5,   0.00,   0.00, 1006.2,    0.1, -999.0
26-08-2023, 00:41:03,    224,    0.0,   10.5,   0.00,   0.00, 1006.2,    0.1, -999.0
26-08-2023, 00:41:13,    224,    0.0,   10.5,   0.00,   0.00, 1006.2,    0.3, -999.0
26-08-2023, 00:41:23,    223,    0.0,   10.5,   0.00,   0.00, 1006.2,    0.2, -999.0
26-08-2023, 00:41:33,    223,    0.0,   10.5,   0.00,   0.00, 1006.2,    0.2, -999.0
26-08-2023, 00:41:43,    223,    0.0,   10.6,   0.00,   0.00, 1006.2,    0.3, -999.0
26-08-2023, 00:41:53,    223,    0.0,   10.5,   0.00,   0.00, 1006.2,    0.2, -999.0
26-08-2023, 00:42:03,    225,    0.0,   10.5,   0.00,   0.00, 1006.2,    0.1, -999.0
26-08-2023, 00:42:13,    224,    0.0,   10.5,   0.00,   0.00, 1006.2,    0.1, -999.0
26-08-2023, 00:42:23,    225,    0.0,   10.5,   0.00,   0.00, 1006.2,    0.3, -999.0
26-08-2023, 00:42:33,    226,    0.0,   10.5,   0.00,   0.00, 1006.2,    0.1, -999.0
26-08-2023, 00:42:43,    224,    0.0,   10.5,   0.00,   0.00, 1006.2,    0.2, -999.0
26-08-2023, 00:42:53,    224,    0.0,   10.5,   0.00,   0.00, 1006.2,    0.0, -999.0
26-08-2023, 00:43:03,    224,    0.0,   10.5,   0.00,   0.00, 1006.2,    0.2, -999.0
26-08-2023, 00:43:13,    224,    0.0,   10.4,   0.00,   0.00, 1006.2,    0.2, -999.0
26-08-2023, 00:43:23,    224,    0.0,   10.4,   0.00,   0.00, 1006.2,    0.1, -999.0
26-08-2023, 00:43:33,    224,    0.0,   10.5,   0.00,   0.00, 1006.2,    0.2, -999.0
26-08-2023, 00:43:43,    225,    0.0,   10.5,   0.00,   0.00, 1006.2,    0.3, -999.0
26-08-2023, 00:43:53,    224,    0.0,   10.5,   0.00,   0.00, 1006.2,    0.1, -999.0
26-08-2023, 00:44:03,    224,    0.0,   10.5,   0.00,   0.00, 1006.2,    0.1, -999.0
26-08-2023, 00:44:13,    224,    0.0,   10.5,   0.00,   0.00, 1006.2,    0.2, -999.0
26-08-2023, 00:44:23,    226,    0.0,   10.5,   0.00,   0.00, 1006.2,    0.1, -999.0
26-08-2023, 00:44:33,    226,    0.0,   10.5,   0.00,   0.00, 1006.2,    0.1, -999.0
26-08-2023, 00:44:43,    226,    0.0,   10.5,   0.00,   0.00, 1006.2,    0.2, -999.0
26-08-2023, 00:44:53,    226,    0.0,   10.5,   0.00,   0.00, 1006.2,    0.3, -999.0
26-08-2023, 00:45:03,    226,    0.0,   10.5,   0.00,   0.00, 1006.2,    0.1, -999.0
26-08-2023, 00:45:13,    226,    0.0,   10.4,   0.00,   0.00, 1006.2,    0.1, -999.0
26-08-2023, 00:45:23,    226,    0.0,   10.4,   0.00,   0.00, 1006.2,    0.2, -999.0
26-08-2023, 00:45:33,    226,    0.0,   10.5,   0.00,   0.00, 1006.2,    0.2, -999.0
26-08-2023, 00:45:42,    225,    0.0,   10.5,   0.00,   0.00, 1006.2,    0.2, -999.0
26-08-2023, 00:45:53,    219,    0.0,   10.5,   0.00,   0.00, 1006.2,    0.2, -999.0
26-08-2023, 00:46:03,    219,    0.2,   10.5,   0.00,   0.00, 1006.2,    0.2, -999.0
26-08-2023, 00:46:13,    220,    0.0,   10.5,   0.00,   0.00, 1006.2,    0.2, -999.0
26-08-2023, 00:46:22,    218,    0.0,   10.5,   0.00,   0.00, 1006.2,    0.2, -999.0
26-08-2023, 00:46:33,    218,    0.0,   10.5,   0.00,   0.00, 1006.2,    0.0, -999.0
26-08-2023, 00:46:43,    220,    0.0,   10.5,   0.00,   0.00, 1006.2,    0.1, -999.0
26-08-2023, 00:46:52,    220,    0.0,   10.5,   0.00,   0.00, 1006.2,    0.2, -999.0